Location: Plum
(40.5000°N, 79.7500°W)
Time: 21:35:21
(UTC-04:00)

MOZ.5/SAFIR/RUBIN 5/SL-8 - Visible Passes

Search period start: 24 April 2015 00:00
Search period end: 04 May 2015 00:00
Orbit: 679 x 708 km, 97.8° (Epoch: 24 April)

Date Brightness Start Highest point End Pass type
(mag) Time Alt. Az. Time Alt. Az. Time Alt. Az.
24 Apr 6.6 05:04:15 10° ESE 05:07:43 21° ENE 05:11:17 10° NNE visible
25 Apr 4.8 05:42:57 10° SSE 05:47:31 51° ENE 05:52:05 10° N visible
26 Apr 7.0 04:47:51 10° E 04:50:18 15° ENE 04:52:57 10° NNE visible
27 Apr 5.7 05:25:48 10° SE 05:30:01 34° ENE 05:34:17 10° N visible
29 Apr 6.4 05:08:53 10° ESE 05:12:33 24° ENE 05:16:19 10° NNE visible
30 Apr 4.6 05:47:45 10° SSE 05:52:22 59° ENE 05:56:59 10° N visible
01 May 6.9 04:52:18 10° ESE 04:55:07 16° ENE 04:58:06 10° NNE visible
02 May 5.5 05:30:31 10° SE 05:34:50 39° ENE 05:39:12 10° N visible
03 May 7.3 04:36:29 10° ENE 04:37:42 11° ENE 04:39:11 10° NE visible
